Location: Contre
(49.7477°N, 2.0963°E)
Time: 19:47:56
(UTC+00:00)

ISS - Visible Passes

Search period start: 28 February 2024 00:00
Search period end: 09 March 2024 00:00
Orbit: 414 x 422 km, 51.6° (Epoch: 28 February)

Date Brightness Start Highest point End Pass type
(mag) Time Alt. Az. Time Alt. Az. Time Alt. Az.
28 Feb -2.9 04:21:04 49° NE 04:21:04 49° NE 04:23:48 10° ENE visible
28 Feb -3.7 05:54:00 10° WNW 05:57:23 82° NNE 06:00:48 10° ESE visible
29 Feb -0.8 03:35:01 17° ENE 03:35:01 17° ENE 03:35:54 10° ENE visible
29 Feb -3.6 05:07:57 29° WNW 05:09:29 69° N 05:12:52 10° E visible
01 Mar -3.2 04:21:53 57° NE 04:21:53 57° NE 04:24:53 10° E visible
01 Mar -3.5 05:55:00 10° WNW 05:58:20 60° SSW 06:01:41 10° SE visible
02 Mar -0.9 03:35:48 19° ENE 03:35:48 19° ENE 03:36:52 10° E visible
02 Mar -3.8 05:08:44 28° WNW 05:10:25 80° SSW 05:13:48 10° ESE visible
03 Mar -3.6 04:22:41 72° ENE 04:22:41 72° ENE 04:25:49 10° ESE visible
03 Mar -2.6 05:55:58 10° W 05:58:59 30° SW 06:01:59 10° SSE visible
04 Mar -1.1 03:36:39 19° E 03:36:39 19° E 03:37:44 10° E visible
04 Mar -3.2 05:09:35 26° W 05:11:04 43° SSW 05:14:18 10° SE visible
05 Mar -3.3 04:23:37 51° SSE 04:23:37 51° SSE 04:26:25 10° SE visible
06 Mar -1.0 03:37:42 15° ESE 03:37:42 15° ESE 03:38:22 10° ESE visible
06 Mar -2.3 05:10:39 20° WSW 05:11:25 21° SW 05:14:02 10° SSE visible
07 Mar -2.0 04:24:51 22° S 04:24:51 22° S 04:26:26 10° SSE visible
